Airfield :
LOGIN :

Register | Disclaimer

   EN    FR    IT 

 










Legend :    VFR   Marginal VFR   IFR   Intensive IFR   Very Intensive IFR
Visi :
Ceiling :
>= 8 km
>= 3000ft
5 to 8 km
1000 to 3000 ft
1500m to 5 km
500 to 1000 ft
800 to 1500m
200 to 500 ft
< 800m
< 200 ft
Symbols :   Thunderstorms  Fog  Heavy snow  Heavy precipitations  Wind > 20 kt
SIGMETs :     Misc.  Thunderstorms  Icing  Turbulence  Mountain Waves  Volcanic Ashes







- Airport Elevation : 472 ft
- IATA code : GME


UMGG - Gomel

CURRENT METAR :
  • 151630Z VRB01MPS 6000 NSC 14/07 Q1030 R28/CLRD// NOSIG

EXPIRED METARs :
  • 151600Z VRB01MPS 6000 NSC 14/07 Q1030 R28/CLRD// NOSIG
  • 151530Z VRB01MPS CAVOK 15/07 Q1030 R28/D NOSIG
  • 151500Z VRB01MPS CAVOK 15/07 Q1030 R28/D NOSIG
  • 151430Z VRB01MPS CAVOK 18/06 Q1030 R28/D NOSIG
  • 151400Z VRB01MPS CAVOK 18/06 Q1030 R28/D NOSIG

TAF TAF UMGG
Valid from the 15 at 06:00 until the 16 at 06:00 UTC


150500Z 1506/1606 VRB02MPS 2000 BR SCT005
TEMPO 1506/1508 0900 FG SCT002
FM150800 15004MPS 9999 SCT020
TEMPO 1518/1524 0300 FG SCT002
No reported NOTAMs for that airfield.



MET'MAP, your aeronautical weather chart ! - Copyright ORBIFLY December 2007 - Disclaimer

ORBIFLY MET'MAP TEAM :

Programming & Development : Alexandra Zaïnal
Concept & Development : Baudouin d'Aumeries
Co-Development & Prog : Marc-Olivier Méhu
Technical & hardware support : Manuel Goepfert

Contact : metmap@orbifly.com




SOURCES & CREDITS :

   NOAA